FW1683 Weather Reports


time (UTC)temp
C
wind
direction
speed
KPH
gust
KPH
rain 1hr
cm
rain 24hr
cm
rain mn
cm
humidity
%
barometer
mb
20260510121008 25 251 12.9 20.9 0.00 0.00 0.00 41 1011.9
20260510115010 24 147 12.9 19.3 0.00 0.00 0.00 49 1012.3
20260510114007 23 196 9.7 14.5 0.00 0.00 0.00 47 1012.4
20260510113019 24 159 11.3 17.7 0.00 0.00 0.00 47 1012.5
20260510112007 23 133 8.0 14.5 0.00 0.00 0.00 50 1012.6
20260510111007 23 193 9.7 17.7 0.00 0.00 0.00 52 1012.8
20260510110026 23 199 11.3 19.3 0.00 0.00 0.00 48 1012.9
20260510103016 22 215 9.7 16.1 0.00 0.00 0.00 47 1013.3
20260510102007 22 229 4.8 9.7 0.00 0.00 0.00 48 1013.3
20260510101007 22 228 8.0 14.5 0.00 0.00 0.00 49 1013.4
20260510100012 22 237 9.7 16.1 0.00 0.00 0.00 51 1013.5
20260510094007 21 228 11.3 17.7 0.00 0.00 0.00 54 1013.7
20260510093011 21 247 8.0 14.5 0.00 0.00 0.00 54 1013.8
20260510092006 20 233 11.3 17.7 0.00 0.00 0.00 57 1013.8
20260510091007 21 271 9.7 14.5 0.00 0.00 0.00 55 1013.8
20260510085007 22 262 4.8 11.3 0.00 0.00 0.00 56 1013.9
20260510084008 19 264 6.4 11.3 0.00 0.00 0.00 64 1014.0
20260510083022 18 292 4.8 8.0 0.00 0.00 0.00 67 1014.1
20260509221008 16 287 4.8 6.4 0.00 0.00 0.00 90 1013.9
20260509220011 16 256 6.4 9.7 0.00 0.00 1.55 90 1014.3
20260509214009 16 260 3.2 6.4 0.00 0.00 1.55 89 1014.3
20260509213012 16 291 1.6 3.2 0.00 0.00 1.55 89 1013.9
20260509212008 16 42 0.0 3.2 0.00 0.00 1.55 89 1013.7
20260509210010 16 91 1.6 3.2 0.00 0.00 1.55 89 1013.4
20260509205010 16 132 1.6 3.2 0.00 0.00 1.55 88 1013.5
20260509204020 16 225 0.0 1.6 0.00 0.00 1.55 88 1013.6
20260509203030 16 224 1.6 3.2 0.00 0.00 1.55 88 1013.5
20260509202008 16 101 0.0 3.2 0.00 0.00 1.55 88 1013.5
20260509200010 16 156 1.6 3.2 0.00 0.00 1.55 86 1013.1
20260509195008 16 113 3.2 6.4 0.00 0.00 1.55 86 1013.0
20260509194010 16 218 1.6 4.8 0.00 0.00 1.55 85 1012.8
20260509193009 17 248 1.6 4.8 0.00 0.00 1.55 85 1012.8
20260509192009 17 225 3.2 4.8 0.00 0.00 1.55 84 1012.7
20260509191011 17 149 1.6 4.8 0.00 0.00 1.55 82 1012.5
20260509190024 17 144 3.2 6.4 0.00 0.00 1.55 81 1012.2
20260509185009 17 133 4.8 8.0 0.00 0.00 1.55 80 1012.1
20260509184010 17 111 6.4 11.3 0.00 0.00 1.55 80 1012.0
20260509183021 17 103 8.0 12.9 0.00 0.00 1.55 81 1011.6
20260509182010 17 114 6.4 11.3 0.00 0.00 1.55 80 1011.6
20260509181024 17 115 6.4 11.3 0.00 0.00 1.55 80 1011.7
20260509180008 17 127 12.9 17.7 0.00 0.00 1.55 79 1011.5
20260509175009 18 128 11.3 17.7 0.00 0.00 1.55 76 1011.5
20260509174011 18 134 9.7 16.1 0.00 0.00 1.55 72 1011.3
20260509173008 18 126 11.3 16.1 0.00 0.00 1.55 70 1011.1
20260509172008 18 108 9.7 17.7 0.00 0.00 1.55 68 1011.0
20260509171009 20 97 8.0 11.3 0.00 0.00 1.55 66 1010.9
20260509170026 20 90 9.7 14.5 0.00 0.00 1.55 66 1010.8
20260509165008 20 77 8.0 14.5 0.00 0.00 1.55 66 1010.8
20260509164007 20 83 9.7 14.5 0.00 0.00 1.55 68 1010.7
20260509163011 20 56 9.7 16.1 0.00 0.00 1.55 68 1010.8
20260509161008 19 57 8.0 16.1 0.00 0.00 1.55 73 1010.9
20260509160011 20 86 8.0 12.9 0.00 0.00 1.55 72 1011.0
20260509155009 20 62 8.0 14.5 0.00 0.00 1.55 70 1010.9
20260509154008 19 69 9.7 16.1 0.00 0.00 1.55 72 1011.1
20260509153008 19 58 9.7 16.1 0.00 0.00 1.55 72 1011.1
20260509152008 19 23 11.3 17.7 0.00 0.00 1.55 71 1011.2
20260509150025 20 22 9.7 17.7 0.00 0.00 1.55 74 1011.1
20260509145008 20 34 8.0 14.5 0.00 0.00 1.55 73 1011.1
20260509143020 19 26 8.0 12.9 0.00 0.00 1.55 76 1011.2
20260509142007 19 4 9.7 16.1 0.00 0.00 1.55 75 1011.3
20260509141007 19 12 4.8 8.0 0.00 0.00 1.55 78 1011.3